Powrót do katalogu

DELTA 4 R/B

AktywnyHEO
NORAD 28546·ROCKET BODY·🇺🇸 United States

Wystrzelony Dec 21, 2004 z Cape Canaveral Space Force Station

Loading…

Następne Przeloty (najbliższe 24 godziny)

TLE

ŚwieżeSource: Space-Track

Epoka: Sep 14, 2026, 21:28 UTC

1 28546U 04050B   26257.89470062 -.00000142  00000-0  00000-0 0  9990
2 28546  15.6543 315.3969 2589367 349.3739 187.8828  1.37842656109335

Śledź DELTA 4 R/B w czasie rzeczywistym z AllMySat

Download on the App Store